W4WWT Weather Reports


time (UTC)temp
C
wind
direction
speed
KPH
gust
KPH
rain 1hr
cm
rain 24hr
cm
rain mn
cm
humidity
%
barometer
mb
20260506022502 15 276 0.0 0.0 0.00 0.00 0.00 74 1021.0
20260506021502 16 121 0.0 0.0 0.00 0.00 0.00 71 1021.0
20260506020002 17 105 0.0 0.0 0.00 0.00 0.00 68 1021.0
20260506014503 17 119 0.0 0.0 0.00 0.00 0.00 66 1021.0
20260506013502 18 117 0.0 0.0 0.00 0.00 0.00 64 1021.0
20260506012502 18 111 0.0 0.0 0.00 0.00 0.00 62 1021.0
20260506011002 19 110 0.0 0.0 0.00 0.00 0.00 61 1021.0
20260506005502 20 335 0.0 0.0 0.00 0.00 0.00 56 1021.0
20260506004102 24 133 1.6 6.4 0.00 0.00 0.00 43 1024.0
20260505140502 16 168 0.0 1.6 0.00 0.00 0.00 67 1024.0
20260505125002 9 130 0.0 0.0 0.00 0.00 0.00 98 1023.4
20260505123502 8 114 0.0 0.0 0.00 0.00 0.00 99 1023.4
20260505122501 8 127 0.0 0.0 0.00 0.00 0.00 99 1023.4
20260505121004 7 108 0.0 1.6 0.00 0.00 0.00 99 1023.4
20260505115502 7 314 0.0 0.0 0.00 0.00 0.00 99 1023.0
20260505114501 6 89 0.0 0.0 0.00 0.00 0.00 99 1023.0
20260505113002 6 311 0.0 0.0 0.00 0.00 0.00 98 1023.0
20260505111502 6 193 0.0 0.0 0.00 0.00 0.00 98 1022.7
20260505102002 6 24 0.0 0.0 0.00 0.00 0.00 97 1022.4
20260505100502 6 72 0.0 0.0 0.00 0.00 0.00 97 1022.4
20260505095002 6 43 0.0 0.0 0.00 0.00 0.00 97 1022.4
20260505093502 6 56 0.0 0.0 0.00 0.00 0.00 97 1022.4
20260505092001 6 40 0.0 0.0 0.00 0.00 0.00 96 1022.7
20260505090501 6 112 0.0 0.0 0.00 0.00 0.00 96 1022.4
20260505085003 7 247 0.0 0.0 0.00 0.00 0.00 96 1022.7
20260505084002 7 211 0.0 0.0 0.00 0.00 0.00 96 1022.7
20260505082502 7 314 0.0 0.0 0.00 0.00 0.00 95 1022.7
20260505081002 7 80 0.0 0.0 0.00 0.00 0.00 95 1022.7
20260505075503 7 79 0.0 0.0 0.00 0.00 0.00 95 1022.4
20260505072003 8 98 0.0 0.0 0.00 0.00 0.00 95 1022.7
20260505070502 8 98 0.0 0.0 0.00 0.00 0.00 95 1022.4
20260505065004 8 98 0.0 0.0 0.00 0.00 0.00 94 1022.4
20260505064002 8 95 0.0 0.0 0.00 0.00 0.00 93 1022.4
20260505062506 8 97 0.0 0.0 0.00 0.00 0.00 93 1022.4
20260505061004 8 81 0.0 0.0 0.00 0.00 0.00 93 1022.7
20260505060002 9 80 0.0 0.0 0.00 0.00 0.00 93 1022.7
20260505053001 10 75 0.0 0.0 0.00 0.00 0.00 92 1022.7
20260505051502 10 72 0.0 0.0 0.00 0.00 0.00 92 1022.7
20260505041502 11 241 0.0 0.0 0.00 0.00 0.00 88 1022.7
20260505040019 11 35 0.0 0.0 0.00 0.00 0.00 86 1022.7
20260505034503 12 74 0.0 0.0 0.00 0.00 0.00 85 1022.7
20260505030001 13 12 0.0 0.0 0.00 0.00 0.00 80 1022.7
20260505024502 13 88 0.0 0.0 0.00 0.00 0.00 78 1022.7